Location: St. Louis
(38.6270°N, 90.1994°W)
Time: 20:44:47
(UTC-06:00)

Altair - Pass Details

Date: 01 December 2021
Orbit: 1501 x 1683 km, 47.2° (Epoch: 26 January)

Event Time Altitude Azimuth Distance (km) Brightness Sun altitude
Rises 18:30:05 0° 274° (W) 4,721 11.4 -21.0°
Reaches altitude 10° 18:33:20 10° 280° (W) 3,716 10.5 -21.7°
Maximum altitude 18:42:22 51° 354° (N) 1,845 7.8 -23.4°
Enters shadow 18:46:16 33° 49° (NE) 2,307 8.0 -24.1°
